Location: ??????????
(54.8537°N, 38.8755°E)
Time: 01:34:35
(UTC+00:00)

Vanguard 2 Rocket - Pass Details

Date: 15 September 2024
Orbit: 553 x 3298 km, 32.9° (Epoch: 10 October)

Event Time Altitude Azimuth Distance (km) Brightness Sun altitude
Rises 05:00:37 0° 266° (W) 6,491 10.7 16.6°
Reaches altitude 10° 05:06:57 10° 250° (WSW) 5,856 10.6 17.4°
Maximum altitude 05:17:04 18° 217° (SW) 5,560 10.8 18.8°
Drops below altitude 10° 05:27:47 10° 184° (S) 6,197 11.5 20.2°
Sets 05:34:59 0° 168° (SSE) 7,006 12.0 21.1°
